Defiance, OH

6:51 AM EDT on September 21, 2017 (GMT -0400)
Defiance Memorial

Weather History for KDFI - February, 2014

Change the Weather History Date:

Thursday, February 20, 2014

  Actual Average Record
Temperature  
Mean Temperature 40 °F -  
Max Temperature 53 °F 37 °F 64 °F (2016)
Min Temperature 26 °F 20 °F -13 °F (2015)
Degree Days  
Heating Degree Days 26    
Moisture  
Dew Point 33 °F    
Average Humidity 89    
Maximum Humidity 100    
Minimum Humidity 76    
Precipitation  
Precipitation 1.29 in - - ()
Sea Level Pressure  
Sea Level Pressure 29.71 in    
Wind  
Wind Speed 6 mph (East)    
Max Wind Speed 17 mph    
Max Gust Speed 30 mph    
Visibility 3 miles    
Events Fog , Rain , Thunderstorm    
Averages and records for this station are not official NWS values.
T = Trace of Precipitation, MM = Missing Value Source: NWS Daily Summary

Daily Weather History Graph

Daily Weather History Graph

Search for Another Location

Airport or City:

Trip Planner

Search our weather history database for the weather conditions in past years. The results will help you decide how hot, cold, wet, or windy it might be!

Date:

Astronomy

Feb. 20, 2014 Rise Set
Actual Time 7:25 AM EST 6:17 PM EST
Civil Twilight 6:57 AM EST 6:45 PM EST
Nautical Twilight 6:25 AM EST 7:18 PM EST
Astronomical Twilight 5:53 AM EST 7:50 PM EST
Moon No Moon Rise 10:04 AM EST (2/20)
Length of Visible Light 11h 48m
Length of Day
10h 52m
Waning Gibbous, 71% of the Moon is Illuminated
Feb 20
Waning Gibbous
Feb 22
Last Quarter
Mar 1
New
Mar 8
First Quarter
Mar 16
Full

Hourly Weather History & Observations

Time (EST) Temp. Windchill Dew Point Humidity Pressure Visibility Wind Dir Wind Speed Gust Speed Precip Events Conditions
12:02 AM 28.4 °F - 24.8 °F 86% 30.06 in 1.8 mi Calm Calm - N/A   Clear
12:53 AM 28.0 °F - 25.0 °F 88% 30.09 in 1.2 mi Calm Calm - N/A   Clear
1:13 AM 26.6 °F - 24.8 °F 93% 30.06 in 2.0 mi Calm Calm - N/A   Clear
1:31 AM 28.4 °F - 24.8 °F 86% 30.05 in 1.8 mi Calm Calm - N/A   Partly Cloudy
1:53 AM 28.0 °F 24.2 °F 24.1 °F 85% 30.07 in 2.0 mi ENE 3.5 mph - N/A   Partly Cloudy
2:04 AM 28.4 °F 24.6 °F 26.6 °F 93% 30.05 in 1.8 mi ESE 3.5 mph - N/A   Clear
2:13 AM 28.4 °F - 26.6 °F 93% 30.06 in 2.5 mi Calm Calm - N/A   Clear
2:45 AM 28.4 °F 24.6 °F 26.6 °F 93% 30.04 in 2.0 mi East 3.5 mph - N/A   Clear
2:53 AM 28.9 °F 25.2 °F 26.1 °F 89% 30.06 in 2.0 mi East 3.5 mph - N/A   Clear
3:53 AM 28.0 °F 21.7 °F 25.0 °F 88% 30.01 in 2.0 mi East 5.8 mph - N/A   Clear
4:11 AM 28.4 °F 22.2 °F 24.8 °F 86% 29.97 in 2.5 mi East 5.8 mph - N/A   Clear
4:28 AM 28.4 °F 22.2 °F 24.8 °F 86% 29.96 in 3.0 mi ESE 5.8 mph - N/A   Clear
4:53 AM 30.0 °F 23.2 °F 26.1 °F 85% 29.96 in 3.0 mi ESE 6.9 mph - N/A   Clear
5:53 AM 32.0 °F 25.6 °F 27.0 °F 82% 29.96 in 6.0 mi SE 6.9 mph - N/A   Haze
6:53 AM 33.1 °F 26.1 °F 27.0 °F 78% 29.92 in 5.0 mi ESE 8.1 mph - N/A   Haze
7:53 AM 35.1 °F 26.9 °F 28.0 °F 76% 29.88 in 5.0 mi SE 11.5 mph 18.4 mph 0.01 in Rain Light Rain
8:31 AM 35.6 °F 27.1 °F 30.2 °F 81% 29.82 in 2.0 mi ESE 12.7 mph - 0.09 in Rain Rain
8:46 AM 35.6 °F 27.1 °F 30.2 °F 81% 29.82 in 1.5 mi SE 12.7 mph 18.4 mph 0.16 in Rain , Thunderstorm Heavy Rain
8:53 AM 35.1 °F 27.4 °F 30.9 °F 85% 29.86 in 1.5 mi SE 10.4 mph 17.3 mph 0.18 in Rain , Thunderstorm Thunderstorms and Rain
9:50 AM 35.6 °F 29.2 °F 32.0 °F 87% 29.78 in 2.5 mi East 8.1 mph 19.6 mph 0.35 in Rain , Thunderstorm Light Thunderstorms and Rain
9:53 AM 36.0 °F 30.3 °F 32.0 °F 86% 29.81 in 3.0 mi NE 6.9 mph 19.6 mph 0.35 in Rain , Thunderstorm Thunderstorms and Rain
10:01 AM 35.6 °F 28.6 °F 32.0 °F 87% 29.79 in 2.5 mi NE 9.2 mph - 0.04 in Rain , Thunderstorm Light Thunderstorms and Rain
10:04 AM 35.6 °F 28.6 °F 32.0 °F 87% 29.79 in 1.8 mi ENE 9.2 mph - 0.07 in Rain , Thunderstorm Heavy Thunderstorms and Rain
10:45 AM 35.6 °F 27.1 °F 33.8 °F 93% 29.74 in 2.5 mi East 12.7 mph - 0.33 in Rain , Thunderstorm Light Thunderstorms and Rain
10:53 AM 36.0 °F 28.0 °F 33.1 °F 89% 29.77 in 5.0 mi East 11.5 mph - 0.33 in Rain , Thunderstorm Light Rain
11:04 AM 35.6 °F 26.2 °F 33.8 °F 93% 29.74 in 4.0 mi East 15.0 mph - 0.02 in Rain Light Rain
11:31 AM 35.6 °F 27.5 °F 33.8 °F 93% 29.79 in 1.8 mi North 11.5 mph - 0.07 in Rain Rain
11:41 AM 35.6 °F 28.0 °F 33.8 °F 93% 29.79 in 1.5 mi NNE 10.4 mph - 0.12 in Rain , Thunderstorm Rain
11:53 AM 36.0 °F 29.6 °F 33.1 °F 89% 29.80 in 2.0 mi NE 8.1 mph - 0.16 in Rain Light Rain
12:08 PM 35.6 °F 29.9 °F 33.8 °F 93% 29.76 in 3.0 mi ENE 6.9 mph - 0.01 in Rain Light Rain
12:16 PM 35.6 °F 28.6 °F 33.8 °F 93% 29.75 in 3.0 mi ENE 9.2 mph - 0.01 in Rain Light Rain
12:53 PM 36.0 °F 27.1 °F 33.1 °F 89% 29.72 in 2.5 mi East 13.8 mph - 0.01 in   Overcast
1:02 PM 35.6 °F 27.1 °F 33.8 °F 93% 29.68 in 3.0 mi East 12.7 mph - N/A   Overcast
1:13 PM 35.6 °F 26.6 °F 33.8 °F 93% 29.66 in 3.0 mi East 13.8 mph - N/A   Overcast
1:53 PM 37.0 °F 29.3 °F 34.0 °F 89% 29.68 in 5.0 mi ESE 11.5 mph - N/A   Overcast
2:53 PM 36.0 °F 27.5 °F 33.1 °F 89% 29.66 in 4.0 mi East 12.7 mph - 0.00 in   Overcast
3:09 PM 35.6 °F 26.6 °F 33.8 °F 93% 29.63 in 4.0 mi East 13.8 mph - 0.00 in   Overcast
3:42 PM 35.6 °F 28.0 °F 33.8 °F 93% 29.62 in 2.5 mi East 10.4 mph - 0.01 in Rain Light Rain
3:45 PM 35.6 °F 26.6 °F 33.8 °F 93% 29.61 in 1.8 mi East 13.8 mph - 0.01 in Rain Light Rain
3:53 PM 36.0 °F 27.1 °F 33.1 °F 89% 29.64 in 1.5 mi East 13.8 mph - 0.02 in Rain Light Rain
4:00 PM 35.6 °F 27.1 °F 33.8 °F 93% 29.61 in 1.5 mi East 12.7 mph - 0.01 in Rain Rain
4:21 PM 35.6 °F 27.1 °F 33.8 °F 93% 29.60 in 2.5 mi East 12.7 mph - 0.02 in Rain Light Rain
4:53 PM 36.0 °F 29.0 °F 33.1 °F 89% 29.61 in 2.0 mi East 9.2 mph - 0.03 in   Overcast
5:03 PM 35.6 °F 27.1 °F 33.8 °F 93% 29.57 in 1.5 mi East 12.7 mph - 0.01 in Rain Light Rain
5:37 PM 35.6 °F 27.5 °F 33.8 °F 93% 29.55 in 2.0 mi East 11.5 mph - 0.02 in Rain Light Rain
5:53 PM 36.0 °F 29.6 °F 34.0 °F 93% 29.57 in 2.0 mi East 8.1 mph - 0.02 in   Overcast
6:03 PM 35.6 °F 29.9 °F 33.8 °F 93% 29.55 in 2.0 mi East 6.9 mph - 0.00 in Rain Light Rain
6:26 PM 37.4 °F 32.1 °F 35.6 °F 93% 29.53 in 2.5 mi East 6.9 mph - 0.00 in   Overcast
6:29 PM 37.4 °F 32.1 °F 35.6 °F 93% 29.53 in 2.0 mi East 6.9 mph - 0.00 in Rain Light Rain
6:37 PM 37.4 °F 33.8 °F 35.6 °F 93% 29.53 in 1.8 mi East 4.6 mph - 0.01 in Rain Light Rain
6:45 PM 37.4 °F 33.8 °F 35.6 °F 93% 29.52 in 2.0 mi ENE 4.6 mph - 0.01 in Rain Light Rain
6:53 PM 37.0 °F 32.4 °F 35.1 °F 93% 29.53 in 2.0 mi East 5.8 mph - 0.01 in   Overcast
7:05 PM 37.4 °F 32.8 °F 35.6 °F 93% 29.51 in 2.5 mi East 5.8 mph - N/A   Overcast
7:30 PM 37.4 °F 32.8 °F 35.6 °F 93% 29.49 in 2.0 mi East 5.8 mph - N/A   Overcast
7:53 PM 37.9 °F 33.5 °F 36.0 °F 93% 29.49 in 2.0 mi East 5.8 mph - N/A   Mostly Cloudy
8:31 PM 37.4 °F 33.8 °F 35.6 °F 93% 29.46 in 1.5 mi East 4.6 mph - N/A   Clear
8:53 PM 37.9 °F 35.5 °F 36.0 °F 93% 29.46 in 1.2 mi NNE 3.5 mph - N/A   Partly Cloudy
9:04 PM 37.4 °F 34.9 °F 37.4 °F 100% 29.44 in 0.5 mi ESE 3.5 mph - N/A Fog Fog
9:12 PM 46.4 °F 41.9 °F 42.8 °F 87% 29.43 in 2.0 mi South 9.2 mph - N/A   Clear
9:19 PM 48.2 °F - 44.6 °F 87% 29.42 in 9.0 mi SSE 6.9 mph - N/A   Partly Cloudy
9:42 PM 51.8 °F - 44.6 °F 76% 29.42 in 9.0 mi South 11.5 mph 17.3 mph 0.00 in Rain , Thunderstorm Light Rain
9:53 PM 52.0 °F - 46.0 °F 80% 29.42 in 6.0 mi South 10.4 mph - 0.02 in Rain , Thunderstorm Light Thunderstorms and Rain
10:29 PM 53.6 °F - 48.2 °F 82% 29.46 in 7.0 mi WSW 17.3 mph 29.9 mph 0.13 in Rain Light Rain
10:53 PM 48.9 °F - 46.0 °F 90% 29.44 in 10.0 mi SSW 12.7 mph 21.9 mph 0.15 in Rain Light Rain
11:26 PM 48.2 °F - 44.6 °F 87% 29.46 in 9.0 mi WSW 16.1 mph 26.5 mph 0.00 in   Overcast
11:53 PM 41.0 °F 32.8 °F 34.0 °F 76% 29.50 in 10.0 mi WSW 16.1 mph 29.9 mph 0.00 in   Overcast